Hourly Data Report for October 04, 2017

All times are specified in Local Standard Time (LST). Add 1 hour to adjust for Daylight Saving Time where and when it is observed.

BEAVER ISLAND (AUT)
NOVA SCOTIA

44°49'00.000" N
62°20'00.000" W
16.00 m
8200558
71403
WBV

Download Data

Hourly Data (October 2017)
Hourly Data Report for October 4, 2017
Temp Definition
°C
Dew Point Temp Definition
°C
Rel Hum Definition
%
Wind Dir Definition
10's deg

Wind Spd Definition
km/h
Visibility Definition
km
Stn Press Definition
kPa
Hmdx Definition


Wind Chill Definition


Weather Definition


TIME
00:00 10.9 LegendMM LegendMM 27 19   102.88     LegendNANA
01:00 10.8 LegendMM LegendMM 26 19   102.81     LegendNANA
02:00 11.2 LegendMM LegendMM 27 21   102.75     LegendNANA
03:00 10.9 LegendMM LegendMM 26 26   102.68     LegendNANA
04:00 11.2 LegendMM LegendMM 26 30   102.65     LegendNANA
05:00 11.4 LegendMM LegendMM 26 31   102.54     LegendNANA
06:00 12.0 LegendMM LegendMM 26 32   102.46     LegendNANA
07:00 12.5 LegendMM LegendMM 26 30   102.43     LegendNANA
08:00 13.8 LegendMM LegendMM 26 35   102.36     LegendNANA
09:00 14.6 LegendMM LegendMM 26 39   102.30     LegendNANA
10:00 15.4 LegendMM LegendMM 26 39   102.18     LegendNANA
11:00 16.1 LegendMM LegendMM 25 41   102.09     LegendNANA
12:00 16.2 LegendMM LegendMM 25 47   101.97     LegendNANA
13:00 16.7 LegendMM LegendMM 25 44   101.86     LegendNANA
14:00 16.6 LegendMM LegendMM 24 46   101.78     LegendNANA
15:00 17.0 LegendMM LegendMM 24 42   101.71     LegendNANA
16:00 17.0 LegendMM LegendMM 24 42   101.66     LegendNANA
17:00 16.7 LegendMM LegendMM 24 38   101.59     LegendNANA
18:00 16.5 LegendMM LegendMM 24 40   101.52     LegendNANA
19:00 16.5 LegendMM LegendMM 24 36   101.48     LegendNANA
20:00 16.4 LegendMM LegendMM 24 41   101.44     LegendNANA
21:00 16.3 LegendMM LegendMM 24 44   101.39     LegendNANA
22:00 15.9 LegendMM LegendMM 24 47   101.37     LegendNANA
23:00 15.3 LegendMM LegendMM 25 50   101.33     LegendNANA

Notes on Data Quality.

Legend

  • E = Estimated
  • M = Missing
  • NA = Not Available
  • ‡ = Partner data that is not subject to review by the National Climate Archives
Date modified: